Weather History for Port Angeles, WA

Change the Weather History Date:

Sunday, March 30, 2014

  Actual Average Record
Temperature  
Mean Temperature 44 °F -  
Max Temperature 50 °F 53 °F 68 °F (1969)
Min Temperature 37 °F 38 °F 30 °F (1954)
Degree Days  
Heating Degree Days 22    
Moisture  
Dew Point 39 °F    
Average Humidity 83    
Maximum Humidity 96    
Minimum Humidity 66    
Precipitation  
Precipitation 0.02 in - - ()
Sea Level Pressure  
Sea Level Pressure 29.92 in    
Wind  
Wind Speed 4 mph (South)    
Max Wind Speed 10 mph    
Max Gust Speed -    
Visibility 9 miles    
Events Rain    
Averages and records for this station are not official NWS values.
T = Trace of Precipitation, MM = Missing Value Source: NWS Daily Summary

Daily Weather History Graph

Daily Weather History Graph

Search for Another Location

Airport:

Trip Planner

Search our weather history database for the weather conditions in past years. The results will help you decide how hot, cold, wet, or windy it might be!

Date:

Astronomy

Mar. 30, 2014 Rise Set
Actual Time 6:56 AM PDT 7:41 PM PDT
Civil Twilight 6:24 AM PDT 8:13 PM PDT
Nautical Twilight 5:47 AM PDT 8:50 PM PDT
Astronomical Twilight 5:08 AM PDT 9:30 PM PDT
Moon 6:45 AM PDT (3/30) 8:03 PM PDT (3/30)
Length of Visible Light 13h 48m
Length of Day
12h 45m
New Moon, 0% of the Moon is Illuminated
Mar 30
New Moon
Apr 7
First Quarter
Apr 15
Full
Apr 22
Last Quarter
Apr 28
New

Hourly Weather History & Observations

Time (PDT) Temp. Windchill Dew Point Humidity Pressure Visibility Wind Dir Wind Speed Gust Speed Precip Events Conditions
12:53 AM 39.9 °F 37.8 °F 37.0 °F 89% 29.80 in 10.0 mi Variable 3.5 mph - N/A   Partly Cloudy
1:53 AM 43.0 °F 39.5 °F 39.0 °F 86% 29.81 in 10.0 mi SW 5.8 mph - N/A   Mostly Cloudy
2:53 AM 43.0 °F - 39.0 °F 86% 29.82 in 10.0 mi Calm Calm - 0.00 in   Overcast
3:53 AM 42.1 °F 39.2 °F 39.0 °F 89% 29.83 in 10.0 mi SW 4.6 mph - N/A   Overcast
4:53 AM 41.0 °F 36.4 °F 37.9 °F 89% 29.84 in 10.0 mi West 6.9 mph - N/A   Mostly Cloudy
5:53 AM 42.1 °F 37.7 °F 39.0 °F 89% 29.84 in 10.0 mi WSW 6.9 mph - N/A   Overcast
6:53 AM 41.0 °F 39.0 °F 39.0 °F 93% 29.86 in 10.0 mi West 3.5 mph - N/A   Overcast
7:42 AM 43.0 °F 39.5 °F 37.9 °F 82% 29.87 in 10.0 mi West 5.8 mph - N/A   Overcast
7:53 AM 43.0 °F 41.3 °F 39.0 °F 86% 29.88 in 10.0 mi Variable 3.5 mph - N/A   Overcast
8:14 AM 43.0 °F 41.3 °F 39.0 °F 86% 29.88 in 10.0 mi SW 3.5 mph - N/A   Overcast
8:53 AM 45.0 °F 42.6 °F 39.9 °F 82% 29.89 in 10.0 mi WSW 4.6 mph - N/A   Overcast
9:53 AM 48.9 °F - 41.0 °F 74% 29.90 in 10.0 mi Calm Calm - N/A   Mostly Cloudy
10:30 AM 46.9 °F - 41.0 °F 80% 29.91 in 10.0 mi East 5.8 mph - N/A   Mostly Cloudy
10:41 AM 46.9 °F - 39.9 °F 77% 29.91 in 10.0 mi Calm Calm - N/A   Scattered Clouds
10:53 AM 48.0 °F - 41.0 °F 77% 29.92 in 10.0 mi East 5.8 mph - N/A   Partly Cloudy
11:39 AM 46.9 °F - 41.0 °F 80% 29.93 in 10.0 mi Variable 3.5 mph - N/A   Overcast
11:53 AM 46.9 °F - 41.0 °F 80% 29.94 in 10.0 mi Variable 4.6 mph - N/A   Overcast
12:12 PM 46.9 °F - 41.0 °F 80% 29.94 in 10.0 mi Variable 3.5 mph - N/A   Overcast
12:53 PM 48.0 °F - 41.0 °F 77% 29.95 in 10.0 mi East 8.1 mph - N/A   Mostly Cloudy
1:53 PM 50.0 °F - 39.0 °F 66% 29.95 in 10.0 mi East 10.4 mph - N/A   Clear
2:53 PM 48.9 °F - 37.9 °F 66% 29.95 in 10.0 mi East 6.9 mph - N/A   Mostly Cloudy
3:53 PM 45.0 °F 42.6 °F 39.9 °F 82% 29.97 in 10.0 mi Variable 4.6 mph - 0.00 in Rain Light Rain
4:04 PM 46.0 °F - 41.0 °F 83% 29.96 in 2.5 mi Calm Calm - 0.02 in Rain Rain
4:16 PM 46.0 °F - 42.1 °F 86% 29.96 in 7.0 mi Calm Calm - 0.02 in Rain Light Rain
4:24 PM 46.9 °F - 42.1 °F 83% 29.96 in 10.0 mi Calm Calm - 0.02 in   Overcast
4:38 PM 46.9 °F - 41.0 °F 80% 29.96 in 10.0 mi ESE 3.5 mph - 0.02 in   Mostly Cloudy
4:53 PM 46.9 °F - 41.0 °F 80% 29.97 in 10.0 mi Variable 3.5 mph - 0.02 in   Mostly Cloudy
5:53 PM 48.0 °F - 39.0 °F 71% 29.97 in 10.0 mi SE 6.9 mph - N/A   Overcast
6:53 PM 46.9 °F - 39.0 °F 74% 29.97 in 10.0 mi ESE 8.1 mph - N/A   Overcast
7:53 PM 46.0 °F - 39.9 °F 79% 29.98 in 10.0 mi Calm Calm - 0.00 in Rain Light Rain
8:53 PM 44.1 °F - 41.0 °F 89% 29.99 in 10.0 mi Calm Calm - 0.00 in   Overcast
9:53 PM 42.1 °F 39.2 °F 39.0 °F 89% 29.99 in 10.0 mi WSW 4.6 mph - N/A   Partly Cloudy
10:53 PM 37.0 °F - 36.0 °F 96% 29.99 in 5.0 mi Calm Calm - N/A   Clear
11:03 PM 37.0 °F - 35.1 °F 93% 29.98 in 1.8 mi Calm Calm - N/A   Clear
11:12 PM 37.9 °F 35.5 °F 36.0 °F 93% 29.98 in 3.0 mi South 3.5 mph - N/A   Clear
11:53 PM 37.0 °F - 35.1 °F 93% 29.99 in 4.0 mi Calm Calm - N/A   Clear